Temp
-15 -15 -15 -14 -14 -14 -14 -14 -14 -13 -13 -13 -13 -12 -12 -12 -12 -12 -12 -12 -12 -12 -12 -12 -12 -12 -13 -13 -12 -12 -12 -11 -10 -10 -10 -9 -9 -10 -10 -11 -11 -11 -10 -11
-15 -15 -15 -15 -14 -14 -14 -14 -14 -14 -13 -13 -13 -12 -12 -12 -12 -12 -12 -12 -12 -12 -12 -12 -12 -12 -12 -12 -13 -13 -12 -12 -12 -11 -10 -10 -10 -10 -10 -11 -11 -10 -11 -12
-15 -15 -15 -15 -15 -15 -14 -14 -14 -14 -14 -13 -12 -12 -12 -12 -12 -12 -12 -12 -12 -12 -12 -12 -12 -12 -12 -12 -12 -12 -12 -13 -13 -12 -11 -11 -10 -10 -10 -11 -11 -11 -12 -13
-16 -16 -15 -15 -15 -15 -15 -15 -15 -14 -14 -14 -14 -12 -12 -12 -12 -12 -12 -12 -12 -12 -11 -12 -12 -12 -12 -12 -12 -12 -12 -12 -12 -13 -12 -12 -11 -10 -10 -11 -11 -11 -12 -12
-16 -16 -16 -16 -16 -15 -15 -15 -15 -14 -14 -13 -14 -13 -12 -12 -13 -13 -12 -12 -11 -11 -11 -11 -12 -12 -12 -12 -12 -12 -12 -11 -12 -12 -12 -12 -11 -11 -11 -10 -10 -11 -11 -11
-17 -17 -17 -17 -17 -16 -16 -15 -15 -14 -14 -14 -14 -14 -12 -12 -13 -13 -13 -12 -12 -11 -11 -11 -11 -12 -12 -12 -12 -12 -11 -11 -12 -12 -12 -11 -12 -11 -11 -11 -11 -11 -12 -12
-18 -18 -18 -18 -18 -18 -17 -17 -16 -16 -16 -16 -15 -14 -13 -14 -13 -13 -13 -13 -12 -12 -12 -11 -11 -11 -11 -12 -12 -12 -11 -11 -11 -11 -11 -11 -12 -12 -11 -11 -11 -12 -12 -12
-19 -20 -19 -19 -19 -18 -18 -17 -17 -16 -16 -15 -15 -14 -14 -15 -15 -14 -14 -13 -13 -13 -12 -12 -11 -11 -11 -11 -12 -12 -12 -11 -11 -11 -11 -11 -12 -12 -12 -11 -11 -11 -12 -11
-19 -19 -20 -20 -20 -19 -18 -18 -18 -18 -18 -17 -17 -16 -15 -17 -17 -16 -17 -16 -14 -14 -13 -13 -12 -11 -11 -10 -11 -11 -11 -11 -11 -11 -11 -11 -11 -12 -12 -11 -11 -11 -11 -11
-20 -20 -20 -21 -21 -20 -19 -19 -19 -19 -19 -18 -17 -17 -17 -18 -19 -20 -19 -20 -19 -18 -17 -15 -13 -12 -12 -11 -11 -11 -11 -11 -11 -11 -11 -11 -11 -11 -12 -11 -11 -11 -10 -10
-21 -21 -20 -21 -21 -20 -20 -20 -20 -20 -19 -19 -18 -17 -18 -19 -20 -20 -21 -21 -21 -21 -20 -18 -16 -15 -13 -12 -11 -11 -11 -11 -11 -11 -11 -11 -11 -11 -11 -11 -11 -11 -11 -10
-21 -20 -20 -21 -21 -20 -20 -20 -20 -20 -20 -19 -19 -17 -18 -20 -21 -21 -21 -21 -20 -21 -20 -20 -19 -18 -18 -15 -12 -11 -11 -10 -11 -11 -11 -11 -11 -11 -11 -11 -11 -11 -11 -11
-21 -21 -21 -21 -21 -21 -20 -20 -20 -20 -19 -19 -19 -18 -20 -20 -21 -22 -21 -20 -20 -21 -20 -19 -19 -19 -18 -18 -14 -12 -11 -11 -10 -11 -11 -11 -11 -11 -11 -11 -11 -11 -11 -11
-22 -22 -21 -21 -21 -21 -21 -20 -20 -20 -19 -19 -19 -18 -20 -21 -21 -21 -21 -21 -20 -21 -20 -19 -19 -18 -18 -18 -17 -13 -11 -11 -11 -10 -11 -11 -11 -11 -11 -11 -11 -10 -11 -11
-22 -21 -22 -21 -21 -21 -20 -20 -21 -20 -20 -19 -19 -20 -20 -20 -21 -20 -20 -21 -21 -20 -20 -20 -19 -19 -19 -18 -17 -16 -12 -11 -11 -11 -11 -11 -11 -11 -11 -11 -11 -11 -11 -11
-21 -21 -21 -21 -21 -21 -19 -21 -21 -21 -20 -20 -20 -20 -20 -20 -20 -20 -20 -20 -20 -20 -20 -20 -19 -20 -19 -18 -18 -17 -15 -12 -12 -11 -11 -12 -12 -11 -11 -11 -11 -11 -11 -11
-21 -22 -22 -21 -21 -21 -20 -21 -21 -20 -20 -20 -20 -21 -21 -21 -21 -20 -20 -20 -21 -20 -20 -19 -20 -19 -19 -18 -18 -17 -17 -14 -12 -12 -12 -12 -11 -11 -11 -11 -11 -11 -11 -11
-22 -22 -21 -21 -21 -20 -21 -20 -21 -20 -21 -20 -20 -21 -21 -21 -21 -21 -21 -21 -21 -20 -19 -19 -20 -19 -18 -18 -17 -17 -17 -15 -14 -13 -13 -12 -11 -12 -11 -11 -11 -11 -11 -11
-22 -21 -21 -21 -21 -20 -20 -21 -21 -20 -20 -21 -20 -21 -21 -21 -21 -21 -21 -21 -20 -20 -19 -19 -19 -18 -18 -18 -18 -17 -17 -16 -16 -14 -13 -13 -12 -12 -12 -11 -11 -12 -11 -12
-21 -21 -22 -21 -21 -20 -20 -20 -20 -20 -20 -20 -21 -21 -21 -20 -20 -20 -20 -20 -19 -19 -19 -19 -18 -18 -18 -18 -18 -17 -17 -16 -15 -13 -13 -13 -12 -12 -12 -12 -12 -12 -12 -12
-22 -22 -22 -22 -21 -21 -21 -21 -20 -20 -20 -20 -20 -20 -21 -20 -20 -18 -18 -19 -18 -19 -18 -18 -17 -18 -18 -17 -17 -17 -17 -15 -14 -14 -13 -13 -12 -12 -12 -12 -12 -12 -12 -12
-22 -22 -22 -22 -22 -21 -21 -20 -20 -20 -20 -20 -20 -20 -20 -19 -18 -17 -18 -18 -18 -17 -17 -17 -17 -17 -16 -16 -15 -16 -15 -14 -14 -13 -13 -13 -12 -12 -13 -12 -12 -12 -12 -12
-22 -22 -22 -22 -22 -22 -21 -21 -21 -20 -20 -20 -20 -20 -19 -18 -17 -17 -17 -17 -17 -16 -16 -16 -15 -16 -16 -15 -15 -14 -13 -13 -13 -13 -12 -12 -12 -12 -12 -12 -12 -12 -12 -12
-22 -22 -22 -21 -22 -21 -21 -21 -21 -21 -20 -20 -19 -19 -19 -18 -17 -17 -17 -16 -16 -15 -15 -15 -15 -15 -15 -15 -15 -13 -13 -13 -13 -13 -12 -12 -12 -12 -12 -12 -12 -12 -12 -12
-21 -21 -21 -21 -21 -21 -21 -21 -21 -21 -20 -19 -19 -19 -18 -17 -17 -16 -16 -15 -15 -15 -15 -15 -15 -15 -15 -15 -13 -12 -12 -13 -13 -12 -12 -12 -12 -12 -12 -12 -12 -12 -11 -11
-21 -21 -21 -21 -21 -21 -21 -21 -20 -20 -19 -19 -19 -19 -18 -17 -17 -16 -16 -15 -15 -15 -16 -16 -15 -14 -14 -14 -14 -13 -12 -12 -13 -10 -12 -12 -12 -12 -12 -12 -11 -11 -11 -12
Height
5691 5692 5692 5694 5696 5697 5698 5700 5704 5707 5708 5712 5718 5721 5724 5729 5731 5736 5742 5746 5749 5753 5757 5760 5764 5770 5776 5780 5786 5790 5794 5798 5800 5806 5810 5813 5817 5822 5827 5828 5829 5830 5832 5833
5686 5686 5685 5686 5688 5690 5692 5693 5695 5697 5698 5701 5707 5713 5715 5716 5721 5724 5730 5734 5740 5744 5744 5747 5750 5756 5762 5769 5774 5779 5783 5786 5790 5794 5799 5803 5807 5810 5817 5819 5822 5826 5826 5826
5678 5679 5679 5680 5680 5682 5684 5686 5687 5689 5691 5693 5695 5701 5704 5706 5709 5713 5714 5719 5724 5729 5735 5736 5739 5743 5748 5753 5758 5765 5769 5773 5777 5781 5786 5792 5796 5799 5805 5809 5815 5818 5818 5816
5673 5672 5672 5673 5674 5676 5677 5678 5679 5679 5681 5685 5687 5689 5697 5697 5697 5698 5700 5704 5710 5715 5720 5726 5728 5731 5735 5740 5746 5750 5756 5761 5766 5770 5772 5779 5785 5791 5797 5801 5807 5809 5808 5808
5667 5666 5666 5667 5668 5669 5670 5669 5670 5671 5672 5673 5675 5677 5685 5689 5688 5686 5687 5689 5694 5700 5705 5710 5715 5718 5723 5726 5730 5735 5740 5748 5752 5757 5762 5765 5773 5779 5787 5793 5797 5799 5799 5797
5660 5659 5660 5660 5660 5661 5661 5661 5661 5663 5664 5665 5666 5667 5674 5674 5673 5675 5675 5677 5679 5680 5686 5690 5695 5701 5707 5713 5717 5721 5726 5734 5737 5742 5750 5754 5759 5767 5773 5781 5786 5790 5787 5786
5653 5651 5651 5652 5652 5652 5652 5653 5653 5654 5655 5656 5656 5660 5666 5657 5656 5655 5656 5661 5666 5667 5668 5670 5675 5682 5689 5697 5702 5707 5712 5721 5725 5732 5737 5741 5748 5754 5760 5770 5773 5774 5775 5777
5643 5645 5644 5644 5644 5644 5644 5645 5645 5643 5645 5646 5646 5649 5653 5648 5640 5639 5639 5641 5646 5651 5652 5654 5657 5663 5672 5680 5685 5692 5698 5708 5712 5719 5727 5731 5737 5743 5749 5759 5762 5762 5763 5767
5632 5634 5636 5636 5636 5636 5636 5637 5637 5635 5634 5633 5635 5638 5642 5636 5629 5624 5621 5624 5625 5628 5631 5634 5639 5648 5656 5662 5668 5675 5684 5695 5701 5706 5713 5720 5725 5732 5739 5750 5749 5750 5752 5755
5623 5624 5626 5627 5627 5627 5626 5628 5629 5628 5625 5624 5626 5626 5626 5625 5620 5612 5609 5606 5608 5608 5609 5614 5624 5631 5636 5642 5651 5661 5669 5680 5688 5696 5703 5709 5717 5723 5729 5736 5738 5740 5743 5746
5615 5615 5618 5619 5620 5618 5619 5619 5620 5620 5620 5616 5614 5619 5617 5613 5606 5603 5600 5598 5598 5598 5598 5601 5607 5611 5617 5624 5633 5644 5654 5665 5675 5683 5693 5700 5707 5713 5719 5723 5727 5730 5734 5737
5604 5605 5608 5612 5611 5612 5612 5613 5613 5612 5612 5608 5605 5609 5605 5601 5595 5590 5591 5591 5591 5588 5590 5593 5593 5596 5599 5605 5613 5625 5636 5649 5660 5670 5679 5688 5695 5701 5707 5712 5717 5720 5724 5727
5597 5597 5599 5603 5605 5606 5606 5607 5607 5605 5603 5603 5598 5599 5592 5590 5586 5581 5579 5580 5580 5579 5580 5581 5581 5585 5587 5589 5597 5608 5621 5635 5645 5656 5666 5675 5684 5691 5698 5703 5706 5710 5714 5718
5589 5591 5594 5596 5597 5598 5600 5601 5601 5599 5597 5596 5591 5588 5587 5579 5573 5573 5572 5570 5569 5568 5569 5571 5571 5572 5573 5576 5580 5590 5604 5618 5630 5641 5653 5665 5674 5682 5687 5692 5697 5702 5706 5710
5583 5586 5587 5589 5591 5590 5592 5594 5594 5591 5591 5586 5586 5579 5577 5571 5566 5564 5562 5560 5559 5559 5560 5560 5559 5557 5558 5561 5567 5575 5587 5602 5616 5629 5642 5654 5663 5670 5676 5682 5688 5694 5699 5703
5580 5581 5581 5583 5585 5584 5585 5588 5585 5585 5583 5580 5577 5574 5567 5563 5559 5556 5555 5552 5552 5551 5550 5550 5548 5548 5548 5552 5556 5563 5571 5585 5602 5617 5629 5641 5650 5658 5666 5674 5682 5687 5692 5696
5575 5576 5575 5579 5578 5577 5581 5581 5579 5577 5577 5573 5569 5566 5560 5556 5550 5548 5545 5542 5540 5539 5539 5539 5539 5538 5538 5543 5547 5551 5558 5573 5591 5605 5617 5629 5640 5650 5659 5667 5674 5680 5684 5688
5571 5571 5572 5574 5573 5573 5575 5574 5572 5570 5571 5566 5561 5556 5551 5546 5542 5539 5535 5531 5529 5526 5529 5529 5530 5528 5529 5534 5540 5545 5551 5565 5580 5594 5607 5621 5634 5643 5651 5660 5667 5673 5678 5681
5567 5569 5569 5569 5569 5570 5570 5567 5565 5562 5564 5559 5552 5547 5541 5537 5532 5533 5526 5520 5517 5518 5520 5521 5521 5523 5527 5533 5534 5540 5547 5558 5570 5587 5602 5617 5626 5636 5645 5654 5660 5666 5671 5675
5565 5566 5567 5565 5563 5564 5565 5561 5558 5554 5551 5548 5543 5537 5529 5524 5520 5521 5513 5512 5511 5512 5514 5514 5515 5519 5523 5526 5529 5535 5542 5553 5567 5585 5598 5609 5619 5630 5640 5648 5654 5661 5665 5669
5562 5562 5562 5560 5557 5559 5557 5553 5550 5546 5542 5535 5531 5524 5518 5513 5510 5506 5504 5505 5505 5507 5508 5511 5513 5516 5518 5522 5527 5532 5540 5554 5568 5580 5590 5601 5614 5626 5634 5642 5649 5656 5661 5665
5560 5557 5555 5553 5552 5552 5548 5546 5542 5537 5532 5526 5520 5514 5506 5502 5498 5495 5498 5499 5501 5504 5506 5508 5512 5514 5516 5520 5523 5530 5540 5552 5562 5575 5588 5600 5610 5620 5628 5637 5645 5651 5655 5660
5555 5552 5551 5549 5548 5542 5540 5537 5532 5526 5521 5516 5508 5503 5497 5494 5492 5492 5494 5497 5500 5503 5505 5509 5511 5514 5516 5519 5524 5530 5540 5550 5561 5575 5588 5599 5606 5615 5626 5635 5641 5645 5651 5655
5550 5548 5546 5543 5542 5538 5534 5528 5521 5516 5510 5505 5500 5496 5492 5491 5490 5491 5493 5496 5500 5503 5506 5508 5508 5511 5515 5518 5521 5531 5542 5553 5561 5572 5585 5596 5606 5616 5624 5631 5636 5642 5647 5651
5548 5545 5542 5540 5535 5531 5527 5519 5512 5505 5502 5496 5494 5492 5489 5488 5489 5491 5494 5498 5501 5503 5505 5506 5508 5511 5514 5518 5526 5535 5544 5553 5568 5573 5583 5597 5606 5614 5621 5627 5634 5639 5643 5647
5546 5542 5537 5534 5529 5521 5515 5507 5501 5495 5492 5491 5490 5489 5488 5487 5489 5493 5496 5500 5501 5503 5505 5505 5506 5510 5515 5523 5528 5537 5546 5558 5562 5572 5590 5599 5606 5613 5620 5625 5632 5636 5641 5646
Wind_Speed
31 31 33 35 34 34 36 38 39 40 41 41 40 42 43 42 44 45 46 48 52 68 73 67 64 63 56 57 56 57 58 57 60 62 60 58 51 46 42 33 30 31 36 38
26 28 33 35 35 36 38 40 41 43 43 45 44 42 44 46 45 47 47 49 50 55 60 68 77 73 71 64 61 58 57 58 60 62 66 60 56 53 47 41 36 39 38 41
26 28 30 32 34 35 37 38 40 41 42 43 43 42 42 46 47 49 51 52 54 56 57 58 65 70 80 75 76 73 65 61 61 64 65 67 68 63 56 51 41 38 40 44
26 27 29 30 30 30 31 34 36 38 41 41 43 44 42 45 48 51 53 54 56 57 59 59 59 61 64 70 84 81 77 74 75 63 70 64 62 64 57 48 43 44 45 47
28 28 29 28 29 30 30 32 34 35 37 37 37 40 39 40 44 49 54 57 59 58 59 62 63 63 63 64 67 67 69 71 73 79 75 70 66 62 57 49 42 43 46 50
28 29 28 27 27 27 29 32 34 35 35 37 37 39 39 39 42 44 47 51 58 62 63 64 65 66 67 66 66 68 65 63 64 64 73 77 72 64 56 53 49 48 51 53
26 25 23 23 24 27 29 31 33 35 35 36 38 40 38 45 47 50 52 51 52 56 63 68 68 68 68 67 69 69 68 65 66 64 60 67 73 66 61 48 51 60 62 52
28 22 21 22 26 27 28 29 30 35 35 37 36 40 40 44 50 53 55 57 59 58 61 64 69 70 70 68 68 70 71 68 67 64 61 57 65 70 65 50 48 51 52 44
33 29 23 22 24 25 27 28 27 30 32 37 36 38 42 37 46 52 52 52 57 60 62 64 66 67 69 70 69 69 69 68 68 65 61 60 59 58 61 48 50 47 48 46
35 33 28 23 24 26 30 27 25 25 31 35 35 32 20 29 34 38 43 38 47 51 56 61 63 66 68 70 70 68 68 66 66 66 64 61 58 57 55 48 47 45 48 45
40 39 31 24 22 27 27 25 23 24 27 33 31 23 28 35 35 40 39 35 23 27 38 46 50 59 67 69 69 68 66 66 65 64 63 62 59 58 55 48 44 45 45 42
49 49 45 21 21 24 23 22 22 23 27 32 38 27 30 29 32 30 35 35 28 30 26 28 34 39 41 58 70 69 67 65 64 65 61 60 59 55 51 47 46 46 46 46
25 23 21 19 20 21 21 20 22 27 30 32 34 30 32 27 26 29 26 29 31 30 29 28 32 35 35 38 58 69 67 64 63 62 62 59 59 55 50 48 46 45 45 43
21 19 19 20 22 22 19 17 21 25 29 25 31 27 23 29 34 32 33 30 29 29 31 31 31 34 39 38 42 59 67 64 63 61 59 58 55 50 51 50 48 44 40 37
24 14 17 18 20 24 24 18 20 24 22 26 25 33 31 32 23 30 30 29 31 31 31 31 29 32 35 38 41 43 62 65 63 60 54 54 54 53 51 49 46 39 34 31
18 16 19 18 19 22 22 18 23 23 22 26 29 30 33 30 27 27 33 36 35 34 33 31 31 27 32 32 35 41 51 62 62 58 54 53 56 56 51 47 42 33 30 32
16 16 17 12 19 24 16 17 22 24 24 29 31 30 32 31 32 29 27 30 31 35 41 36 33 30 34 30 28 32 42 56 61 57 55 53 56 53 48 41 35 32 32 33
20 17 13 10 17 21 16 18 23 27 24 28 28 30 35 35 30 29 28 33 28 30 32 25 29 22 33 26 12 29 40 51 56 57 55 52 50 47 45 38 35 33 33 33
7 10 12 16 19 18 16 22 25 29 22 27 33 34 36 37 38 31 35 36 31 27 26 21 25 26 26 25 25 24 40 54 50 54 50 44 46 46 41 39 35 34 34 32
8 13 16 21 25 22 18 24 25 30 31 32 33 35 42 47 34 28 36 34 30 17 21 19 15 23 23 28 31 29 38 57 56 52 47 45 46 44 39 36 35 33 31 27
16 18 21 24 27 23 24 25 29 31 36 38 41 45 49 50 41 22 27 29 15 13 11 12 12 24 19 19 23 25 30 51 50 49 51 48 46 40 38 37 35 30 27 26
17 22 26 28 29 27 29 29 33 37 37 42 49 52 49 41 19 22 20 21 9 7 7 7 11 1 9 13 17 22 32 49 53 54 50 47 43 42 43 38 32 27 26 25
19 21 21 22 19 27 28 33 37 37 43 48 50 47 42 17 12 14 13 13 8 5 2 9 8 10 6 12 20 26 43 52 53 51 48 47 43 43 36 31 28 25 25 24
23 23 22 21 21 24 29 33 39 45 48 46 43 34 20 6 9 9 11 10 5 4 2 6 7 9 12 10 21 34 42 46 54 57 49 41 40 37 33 30 26 26 25 22
18 16 17 20 23 24 27 38 47 45 40 32 22 13 6 3 5 9 15 11 4 5 8 5 4 9 10 10 29 36 41 48 50 38 40 39 36 31 27 25 25 24 22 23
18 19 24 26 29 37 42 46 40 24 15 12 10 7 3 6 6 18 13 7 3 3 6 4 9 9 8 19 21 36 42 46 52 45 37 33 29 28 27 25 23 21 19 17
Wind_Direction
247 246 245 245 245 245 247 249 250 250 250 248 244 247 248 245 244 241 240 240 242 232 224 229 229 231 234 234 239 242 244 249 251 250 247 250 253 257 256 258 264 271 277 282
250 246 245 247 247 245 245 247 249 251 253 252 250 245 248 250 246 245 241 239 236 239 245 238 232 233 231 234 237 239 243 247 249 252 249 248 251 251 252 250 260 267 271 275
255 249 248 247 248 248 248 249 249 250 251 254 254 250 250 252 252 248 248 242 239 235 236 242 243 243 234 236 236 240 240 244 250 253 249 254 255 250 250 248 250 264 265 269
259 255 253 251 252 255 254 253 254 255 255 253 255 253 249 253 255 255 254 251 246 242 240 237 240 242 244 244 240 237 239 241 243 251 258 253 253 259 252 251 254 260 260 264
261 258 258 259 256 255 257 258 257 257 259 260 260 259 250 247 250 255 256 256 254 248 245 243 238 238 238 239 244 246 249 245 249 248 250 255 254 255 254 255 259 256 259 265
265 265 260 257 259 259 258 258 260 261 262 263 265 265 263 264 261 258 254 251 253 253 249 244 242 239 236 236 237 240 244 246 251 251 246 252 255 255 257 259 261 263 263 266
266 260 259 258 255 257 259 261 262 262 263 266 268 266 270 273 274 269 265 260 255 252 252 251 246 242 240 236 235 238 240 240 243 247 250 249 248 255 258 263 269 271 269 274
256 249 252 257 259 261 259 261 266 270 271 271 274 273 271 279 280 277 273 268 261 255 251 249 249 247 243 241 238 236 236 240 241 241 243 245 246 250 258 262 261 261 266 266
275 258 250 261 263 262 257 263 271 277 280 281 284 285 283 295 287 282 279 272 267 262 253 249 247 247 246 243 240 238 237 236 240 243 242 244 247 248 252 253 256 257 261 261
275 270 268 264 258 264 263 270 275 281 288 292 293 295 309 309 298 283 277 268 262 260 259 254 247 244 244 243 242 240 238 236 237 239 241 242 243 246 248 246 249 254 256 259
262 264 271 268 256 256 261 268 276 283 291 298 296 294 298 300 292 267 265 257 273 261 264 261 253 248 242 241 241 239 238 237 235 237 238 240 242 244 247 247 247 251 254 255
258 261 263 259 250 246 247 259 274 286 294 302 302 305 306 303 291 274 266 257 263 261 258 266 266 252 249 243 236 238 235 234 233 232 234 236 238 241 244 246 247 248 249 251
260 259 249 252 247 237 243 256 274 285 292 296 297 310 299 296 269 259 258 241 252 259 261 259 257 256 257 252 239 233 235 230 230 229 228 231 234 237 239 242 246 245 248 249
264 251 260 257 242 236 243 266 273 277 291 294 300 299 314 290 272 251 260 259 252 257 258 255 261 257 259 256 241 231 227 227 225 227 223 224 229 232 234 237 240 242 245 242
272 263 257 254 241 246 247 270 271 283 288 297 308 301 300 291 283 259 256 255 256 258 259 261 260 258 250 237 237 232 223 222 221 222 222 218 221 225 230 233 234 238 239 240
267 270 260 245 240 251 252 271 268 279 286 297 300 300 299 293 290 271 264 267 263 262 256 266 266 251 242 241 235 231 220 213 215 216 218 215 215 221 225 228 231 234 235 237
268 267 250 226 244 252 264 272 272 279 290 291 295 293 301 301 288 276 275 278 280 271 263 265 265 261 239 233 237 228 225 205 207 210 214 211 212 217 222 225 228 230 231 233
268 256 238 233 244 249 274 282 277 282 285 286 293 296 299 300 296 287 290 284 286 277 259 248 263 247 215 224 226 231 219 207 201 204 209 208 209 213 219 222 224 225 227 227
242 251 272 273 262 267 280 280 281 283 287 286 292 295 309 307 296 290 285 284 292 274 241 255 243 223 226 228 235 224 218 207 200 199 201 198 206 209 214 216 221 219 223 226
237 250 254 277 277 270 282 284 282 291 288 287 290 296 299 308 305 291 271 269 281 249 230 238 221 219 219 234 239 207 211 205 197 191 190 197 201 203 205 211 214 216 219 222
261 268 280 281 277 278 287 286 287 291 292 297 301 303 304 310 309 280 250 259 248 225 202 216 224 212 244 217 207 196 203 204 190 189 191 191 193 194 201 204 209 209 210 223
283 285 282 279 281 283 284 285 287 290 289 299 301 306 312 313 289 262 251 251 204 158 186 192 205 189 202 205 212 191 194 190 186 187 187 184 186 194 197 198 200 204 217 227
293 295 304 298 292 290 291 288 292 292 294 300 306 311 311 306 271 254 240 188 151 159 149 191 233 232 239 171 193 191 182 184 184 181 182 184 189 191 185 189 200 211 222 223
296 307 313 307 296 289 291 294 295 295 297 300 303 307 305 273 244 239 180 150 129 121 180 287 294 197 200 177 191 179 180 185 180 178 184 190 184 174 181 193 202 212 215 219
329 324 308 303 292 282 284 293 299 294 295 294 296 299 306 215 228 183 149 132 130 31 13 20 102 148 172 172 165 175 180 185 180 176 156 167 169 174 185 196 204 210 215 213
339 321 310 310 309 303 302 298 303 306 294 279 271 302 326 173 203 164 145 125 81 44 349 301 218 177 167 176 181 185 184 185 188 161 162 166 171 182 187 195 201 202 200 195